This is the latest recevied weather packets stored in our database for station/object K7CTM. If no packets are shown the sender has not sent any weather packets the latest 10 day(s).
| Time | Temp. | Humidity | Pressure | Rain* | Wind** | Luminosity | Snow |
|---|---|---|---|---|---|---|---|
| 1778030898 | 7.22° C | 36% | 1027.1 hPa | 0 mm | - | 37 W/m² | - |
| 1778030595 | 7.22° C | 36% | 1027.2 hPa | 0 mm | - | 43 W/m² | - |
| 1778030292 | 7.22° C | 36% | 1027.2 hPa | 0 mm | - | 52 W/m² | - |
| 1778029989 | 7.22° C | 36% | 1027 hPa | 0 mm | - | 65 W/m² | - |
| 1778029686 | 7.22° C | 37% | 1027 hPa | 0 mm | - | 55 W/m² | - |
| 1778029384 | 7.22° C | 37% | 1026.9 hPa | 0 mm | - | 66 W/m² | - |
| 1778029080 | 7.22° C | 36% | 1026.9 hPa | 0 mm | - | 84 W/m² | - |
| 1778028777 | 7.22° C | 36% | 1026.8 hPa | 0 mm | - | 80 W/m² | - |
| 1778028473 | 7.22° C | 36% | 1026.9 hPa | 0 mm | - | 82 W/m² | - |
| 1778028171 | 7.22° C | 36% | 1026.9 hPa | 0 mm | - | 94 W/m² | - |
| 1778027867 | 7.78° C | 35% | 1026.6 hPa | 0 mm | - | 97 W/m² | - |
| 1778027564 | 7.78° C | 36% | 1026.6 hPa | 0 mm | - | 116 W/m² | - |
| 1778027260 | 7.78° C | 35% | 1026.6 hPa | 0 mm | - | 108 W/m² | - |
| 1778026955 | 7.78° C | 35% | 1026.5 hPa | 0 mm | - | 138 W/m² | - |
| 1778026652 | 7.78° C | 37% | 1026.5 hPa | 0 mm | - | 145 W/m² | - |
| 1778026350 | 8.33° C | 34% | 1026.5 hPa | 0 mm | - | 133 W/m² | - |
| 1778026046 | 8.33° C | 33% | 1026.3 hPa | 0 mm | - | 130 W/m² | - |
| 1778025744 | 8.33° C | 33% | 1026.2 hPa | 0 mm | - | 182 W/m² | - |
| 1778025441 | 8.33° C | 33% | 1026.3 hPa | 0 mm | - | 166 W/m² | - |
| 1778025139 | 8.89° C | 33% | 1026.2 hPa | 0 mm | - | 190 W/m² | - |
| 1778024835 | 8.33° C | 33% | 1026.1 hPa | 0 mm | - | 281 W/m² | - |
| 1778024533 | 8.33° C | 34% | 1026 hPa | 0 mm | - | 131 W/m² | - |
| 1778024228 | 8.33° C | 35% | 1026.2 hPa | 0 mm | - | 117 W/m² | - |
| 1778023927 | 8.33° C | 34% | 1026.1 hPa | 0 mm | - | 188 W/m² | - |
| 1778023624 | 8.33° C | 34% | 1026 hPa | 0 mm | - | 133 W/m² | - |
* Rain latest hour (hover to see other rain measurements)
** Current wind speed in m/s (hover to see current wind gust speed)